RH
100 100 97 97 99 100 100 96 87 81 73 65 58 49 41 37 32 27 24 19 15 10 5 2 2 2 2 2 3 3 3 3 2 2 3 3 3 3 4 4 4 4
100 100 100 100 100 100 99 91 85 81 72 58 50 44 38 33 28 23 19 14 10 6 3 2 2 2 2 2 3 3 3 3 3 3 3 3 4 4 4 5 5 5
100 100 100 100 100 100 96 88 83 83 75 60 46 39 35 29 24 19 14 10 6 3 2 2 2 2 3 3 4 3 3 3 3 4 4 4 5 5 4 5 6 6
100 101 100 100 101 98 93 88 84 83 81 68 48 36 31 25 19 15 9 6 4 2 2 2 3 3 3 4 4 3 3 4 5 5 5 5 5 5 5 6 7 8
100 100 100 100 100 97 92 89 87 85 86 77 54 34 26 19 14 9 6 4 3 2 3 3 3 4 4 4 4 3 4 5 6 6 5 5 5 6 7 8 8 9
101 100 100 100 100 98 94 91 90 88 89 82 56 32 21 15 10 6 3 3 2 3 3 3 4 4 4 5 4 4 5 5 6 7 6 6 7 7 8 8 8 9
100 100 100 100 99 98 96 93 92 91 91 79 50 26 17 11 6 4 3 2 3 3 4 4 4 4 4 5 5 5 6 5 7 8 7 7 8 7 8 8 8 9
99 100 100 99 97 96 95 94 93 93 89 71 41 21 14 8 4 3 2 3 3 3 4 5 4 4 5 5 6 7 7 6 8 10 9 8 8 7 7 7 8 10
98 99 97 95 95 94 94 94 94 93 84 59 31 18 12 6 4 3 2 3 4 4 5 5 4 4 5 5 6 9 9 7 9 10 9 8 8 7 7 7 8 10
95 95 94 93 94 93 94 95 94 91 75 44 23 16 10 5 3 3 3 3 4 4 4 4 4 4 4 5 7 10 9 7 9 11 11 11 11 8 7 8 8 9
93 93 92 92 91 92 93 94 93 86 61 32 19 14 7 4 4 2 3 4 3 4 4 3 3 4 4 6 8 10 9 8 11 14 15 15 13 9 8 9 9 8
90 89 89 88 88 91 92 94 91 75 46 23 16 13 8 5 3 2 3 4 3 3 3 3 3 4 5 6 8 9 9 10 14 16 17 17 15 12 11 10 8 8
85 84 83 84 87 91 92 92 84 59 30 17 14 12 10 6 3 3 4 3 3 3 3 3 3 4 5 6 8 8 9 11 14 15 16 18 19 17 15 12 8 7
81 81 81 83 86 88 86 83 67 40 21 17 15 13 11 6 3 4 4 3 3 3 3 4 4 4 5 6 6 7 8 9 11 13 15 18 22 20 16 13 9 7
79 79 80 83 82 77 73 65 47 27 19 17 14 13 10 5 4 4 3 3 3 3 3 4 4 4 5 5 5 6 7 9 10 13 14 17 20 19 15 12 9 9
78 78 80 82 75 63 56 46 31 22 18 13 11 11 8 4 4 4 3 3 3 3 4 4 4 5 5 5 5 6 9 11 14 16 14 14 15 16 14 11 9 11
78 78 80 79 68 53 43 34 26 20 15 10 9 8 5 4 4 4 3 3 3 4 4 4 4 4 5 5 6 7 11 13 17 18 15 13 12 12 12 12 11 12
78 79 80 76 64 48 36 29 24 17 12 10 9 6 4 4 4 3 3 4 3 4 4 4 4 4 5 6 7 8 12 14 16 18 15 13 13 11 11 13 14 14
79 80 78 73 60 46 34 27 21 14 10 10 10 7 4 4 4 4 3 4 4 4 4 3 4 5 5 6 7 9 11 13 14 15 14 12 12 11 12 15 15 15
82 82 78 68 54 40 31 24 18 14 13 12 10 7 4 3 4 4 3 4 4 4 4 4 4 5 5 6 7 8 9 10 11 12 12 12 11 11 14 17 17 16
83 84 79 65 46 32 26 22 19 16 14 12 10 6 4 4 4 4 4 4 4 4 4 4 4 4 5 5 6 6 7 8 9 10 11 11 12 13 16 19 18 17
83 82 79 63 41 28 25 22 20 19 16 14 11 7 5 5 4 4 5 4 4 5 4 4 5 4 4 5 5 6 6 7 8 9 10 11 12 15 19 21 20 18
81 80 75 60 40 30 26 22 19 20 19 17 13 8 5 5 4 4 5 4 4 5 4 4 5 4 5 5 5 6 6 6 7 8 9 10 12 15 19 21 19 16
84 81 73 56 39 31 27 22 19 20 19 18 17 11 6 4 5 4 4 5 5 4 5 5 4 5 5 5 6 6 6 7 7 7 8 9 10 13 17 17 16 14
86 83 73 57 41 32 29 25 20 20 20 21 21 15 7 4 5 5 4 5 4 4 5 4 5 5 6 6 7 7 7 8 8 8 8 9 10 12 14 15 14 14
80 76 69 58 44 36 37 35 26 21 21 22 21 17 9 5 5 5 5 5 5 5 5 5 5 6 6 7 8 8 9 9 9 9 9 9 10 11 13 14 15 16
Wind_Speed
13 13 12 12 12 11 11 11 10 7 6 4 3 5 5 5 4 2 0 1 3 4 5 5 5 5 6 6 7 7 8 8 9 10 11 11 12 12 12 13 13 13
15 14 13 13 12 12 11 10 8 6 5 3 4 5 6 5 4 2 0 1 3 4 4 4 4 4 5 5 7 7 8 9 10 10 10 10 11 11 11 12 12 13
16 14 14 14 13 12 11 10 8 6 4 4 5 6 6 5 3 2 1 1 2 3 2 3 3 4 5 6 7 7 8 9 10 10 9 10 10 10 10 11 12 12
15 15 15 14 13 12 11 9 8 6 5 5 6 6 6 4 3 2 2 1 1 1 1 2 3 4 5 6 6 7 8 8 10 10 9 8 9 8 10 11 11 12
16 17 16 15 13 12 11 9 8 8 6 5 6 7 6 4 3 3 2 1 1 1 1 2 3 4 5 6 6 6 7 8 9 8 7 7 8 9 10 10 10 10
18 17 16 15 14 13 11 10 9 8 6 6 7 8 6 5 4 3 2 2 2 2 3 3 3 4 5 5 6 6 7 7 7 7 6 7 8 9 9 9 8 9
18 17 16 15 14 13 12 11 10 9 7 7 8 9 7 6 5 4 4 3 4 4 4 3 3 4 5 5 6 6 6 6 6 6 6 8 8 8 8 8 9 10
17 17 16 15 14 13 12 11 11 10 8 8 9 9 8 6 5 5 5 5 5 4 4 4 4 4 4 5 5 6 5 5 5 6 7 8 7 7 8 9 9 10
16 16 16 15 14 13 12 12 12 10 9 9 10 9 8 7 6 6 6 6 6 5 4 4 3 3 3 4 4 5 5 4 5 5 6 6 5 6 8 9 10 10
17 16 16 15 14 14 13 13 12 11 10 11 11 8 7 7 7 7 7 7 6 5 4 4 3 2 3 3 3 4 5 5 5 4 4 4 5 6 8 9 10 12
17 17 16 15 15 15 14 14 12 11 12 12 10 8 7 8 9 9 8 7 6 5 4 3 3 2 2 2 3 4 5 5 4 3 3 3 5 6 8 10 11 12
18 17 16 16 16 16 15 14 13 13 13 12 9 8 8 9 10 9 8 7 6 6 5 3 3 2 2 2 2 3 4 5 3 2 3 4 5 6 9 11 12 13
18 17 17 16 16 16 15 14 14 14 14 12 10 9 9 10 10 10 9 8 7 6 5 4 3 3 2 2 2 3 3 4 3 3 3 4 5 7 9 11 12 13
18 17 17 16 16 15 15 15 16 16 14 12 10 10 10 10 10 10 9 8 7 6 6 5 4 3 2 2 2 2 3 3 4 3 4 4 5 7 9 11 12 13
19 17 17 17 16 16 17 17 17 16 13 12 11 11 11 12 11 10 9 8 8 7 6 5 4 3 2 2 1 1 2 3 4 4 4 5 5 7 9 11 12 13
19 18 17 17 17 18 19 19 18 15 13 12 12 12 12 12 11 11 10 8 8 7 7 6 4 3 3 2 2 1 2 3 4 4 5 5 6 7 9 10 11 12
19 19 19 19 19 20 20 19 17 15 13 12 12 13 14 13 12 11 10 9 8 7 7 6 5 4 3 3 2 2 2 3 3 3 4 5 6 7 8 8 9 11
20 20 20 20 21 21 20 19 16 14 14 13 13 13 13 13 12 11 11 10 9 8 7 6 5 5 4 4 3 3 2 2 2 2 3 4 5 6 7 7 8 10
22 21 21 21 22 22 20 18 16 15 14 14 14 13 13 12 12 12 11 11 10 9 7 7 6 6 5 5 4 3 3 2 2 2 2 3 4 5 6 7 8 9
23 22 22 23 23 22 20 18 16 15 14 14 14 13 13 12 12 12 12 11 10 9 8 7 7 7 6 6 5 4 3 3 2 2 1 2 3 4 5 6 7 8
24 23 23 24 24 23 21 19 17 15 14 13 13 13 12 12 12 12 12 11 11 10 9 8 8 8 7 6 5 4 3 3 2 2 1 1 2 3 5 6 7 8
25 24 25 26 25 24 22 19 17 15 14 13 14 13 13 13 13 13 12 11 11 11 10 9 9 8 8 6 5 4 3 3 3 2 1 0 1 3 4 6 7 7
26 25 25 27 26 25 22 19 17 16 15 14 14 14 14 14 13 13 13 12 12 12 11 10 9 9 8 7 6 5 4 3 3 2 2 1 1 2 4 5 6 7
26 25 26 27 27 25 22 19 17 16 15 13 13 13 13 14 14 14 14 14 13 13 12 11 10 9 9 8 6 5 4 4 3 3 2 2 1 2 3 4 5 6
23 23 24 26 26 24 21 19 17 16 15 13 13 13 14 14 15 15 15 15 15 14 13 12 11 10 9 8 7 7 5 5 4 3 3 2 2 2 2 3 4 6
21 21 21 24 25 23 21 20 17 16 15 15 14 15 15 15 15 16 16 16 17 16 15 14 12 11 10 9 9 8 6 5 5 4 3 2 1 1 1 2 4 5
Wind_Direction
213 220 226 233 237 247 261 270 279 293 303 293 242 219 215 212 209 199 256 344 344 341 349 5 19 33 39 43 43 39 40 39 38 39 33 30 33 35 34 33 31 28
215 220 224 231 238 250 262 268 277 292 304 280 233 220 215 211 207 190 200 331 333 337 355 16 31 44 46 48 45 39 38 37 38 41 37 35 37 34 32 32 30 28
217 220 224 233 243 253 260 265 274 285 292 267 231 217 212 210 205 190 223 306 327 341 9 35 47 56 52 50 45 39 38 36 40 44 41 39 39 33 32 35 31 28
217 219 225 235 243 250 255 261 270 276 279 262 231 215 211 209 202 201 227 271 327 360 42 70 68 63 54 50 44 37 38 39 44 46 40 39 41 38 39 39 32 26
215 220 228 236 241 246 252 255 261 267 273 262 235 217 208 203 201 204 212 204 160 127 118 101 80 67 59 54 47 41 40 42 47 47 40 44 49 46 45 39 29 23
216 224 231 236 240 247 249 249 254 262 270 259 231 212 201 198 195 192 190 176 165 156 130 107 91 78 68 59 50 45 43 45 51 53 49 54 55 51 47 37 25 21
220 227 231 233 239 244 242 243 252 258 259 245 219 204 197 193 189 182 179 175 165 152 132 115 102 87 74 62 51 45 47 52 60 65 61 59 56 49 44 35 25 22
224 227 229 233 237 238 238 243 251 253 248 231 209 199 191 184 184 182 177 172 164 154 142 128 111 93 75 62 52 46 53 69 75 73 66 61 56 47 41 35 28 25
224 226 228 232 233 235 239 243 246 245 236 217 204 197 189 180 180 183 180 173 165 160 151 136 117 98 80 65 57 54 64 82 86 79 68 59 50 44 41 36 30 26
224 226 226 228 231 235 239 240 240 235 221 206 199 195 191 186 184 183 180 174 166 162 155 142 126 105 91 75 66 65 73 86 88 78 64 49 41 39 39 36 30 27
223 224 225 229 233 236 237 236 232 223 209 200 195 193 195 192 188 184 178 171 166 164 161 153 143 124 101 87 78 73 77 85 85 72 48 36 37 36 35 33 28 24
222 224 228 232 235 234 232 228 222 213 204 197 192 194 197 192 187 183 177 171 170 170 168 163 157 141 114 100 90 76 80 87 84 62 41 32 34 34 31 29 25 19
225 228 231 232 232 228 224 218 211 204 199 195 192 191 191 189 187 183 178 175 175 176 172 166 164 151 124 116 100 79 80 88 83 61 43 36 36 34 29 25 21 15
226 228 229 227 224 218 212 208 203 198 194 193 192 189 186 187 188 186 182 180 178 178 176 170 166 156 135 121 101 82 83 82 75 61 45 42 39 32 26 22 17 12
225 223 222 218 212 206 201 198 196 194 192 191 191 190 187 186 187 185 185 187 183 179 177 172 166 160 147 132 115 96 88 81 76 65 51 44 37 28 24 20 14 10
220 218 216 210 203 197 194 194 193 192 192 190 191 191 188 186 185 184 183 185 185 182 177 172 168 166 163 159 159 141 101 91 83 72 58 46 38 30 22 17 12 8
216 215 212 205 197 193 193 193 193 191 192 192 191 188 185 184 185 185 183 182 182 181 177 172 171 171 177 186 180 161 126 107 93 74 59 46 38 30 20 13 10 7
213 212 208 201 196 193 193 193 193 193 194 194 191 186 184 184 184 185 186 183 180 179 178 176 177 180 185 192 186 167 146 126 104 75 54 44 33 25 18 10 5 4
212 211 205 199 196 194 194 194 194 194 195 193 190 186 184 184 185 185 186 184 180 179 180 180 180 185 190 192 188 175 161 151 134 101 56 37 25 15 10 4 359 359
210 208 203 199 196 194 194 195 195 195 195 193 191 188 186 186 187 187 185 184 181 179 182 184 183 188 191 188 187 185 174 165 151 128 75 31 15 3 359 355 352 353
208 206 202 199 195 193 194 194 195 197 195 191 188 186 187 188 188 188 186 184 183 180 181 186 186 188 188 182 182 186 180 169 157 136 107 27 355 347 348 347 344 347
207 205 202 199 195 194 194 194 195 196 194 191 187 184 186 187 186 187 186 185 185 181 180 185 189 186 182 177 175 176 173 166 158 147 145 183 317 324 333 337 338 343
209 207 202 199 196 195 194 193 194 195 194 192 190 188 188 187 186 186 185 186 187 182 180 184 188 184 179 175 173 169 166 165 160 158 170 204 268 301 320 326 332 340
208 207 204 199 198 198 196 193 193 195 194 191 190 192 190 187 187 186 185 185 185 183 182 182 185 185 180 176 173 171 170 167 165 169 180 201 238 280 307 318 328 337
209 209 208 204 201 201 199 196 194 195 194 190 188 192 191 187 187 188 188 186 183 183 182 180 182 185 182 178 177 177 176 171 167 172 179 191 221 252 288 312 328 333
214 210 211 211 209 206 201 199 199 198 196 193 191 190 190 190 189 189 190 189 184 183 183 180 181 183 183 182 182 180 177 172 169 172 172 178 200 219 274 310 321 326